| time (UTC) | temp F | wind direction | speed MPH | gust MPH | rain 1hr in | rain 24hr in | rain mn in | humidity % | barometer mb |
| 20260905162306 | 51 | 273 | 0.0 | 0.0 | 0.00 | 0.00 | 0.00 | 82 | 1017.7 |
| 20260905162148 | 50 | 272 | 0.0 | 0.0 | 0.00 | 0.00 | 0.00 | 85 | 1017.8 |
| 20260905155306 | 49 | 273 | 0.0 | 1.0 | 0.00 | 0.01 | 0.00 | 87 | 1018.0 |
| 20260905153803 | 48 | 273 | 0.0 | 0.0 | 0.00 | 0.01 | 0.00 | 86 | 1018.1 |
| 20260905152259 | 48 | 275 | 0.0 | 0.0 | 0.00 | 0.01 | 0.00 | 86 | 1018.2 |
| 20260905150757 | 47 | 231 | 0.0 | 0.0 | 0.00 | 0.01 | 0.00 | 87 | 1018.1 |
| 20260905145951 | 47 | 231 | 0.0 | 1.0 | 0.00 | 0.01 | 0.00 | 87 | 1018.2 |
| 20260905144457 | 46 | 214 | 0.0 | 1.0 | 0.00 | 0.01 | 0.00 | 87 | 1018.1 |
| 20260905142257 | 46 | 216 | 0.0 | 0.0 | 0.00 | 0.01 | 0.00 | 86 | 1017.9 |
| 20260905140758 | 46 | 215 | 0.0 | 0.0 | 0.00 | 0.01 | 0.00 | 86 | 1017.7 |
| 20260905135255 | 46 | 215 | 0.0 | 0.0 | 0.00 | 0.01 | 0.00 | 86 | 1017.6 |
| 20260905133755 | 46 | 216 | 0.0 | 0.0 | 0.00 | 0.01 | 0.00 | 86 | 1017.5 |
| 20260905133003 | 46 | 216 | 0.0 | 0.0 | 0.00 | 0.01 | 0.00 | 86 | 1017.5 |
| 20260905130756 | 47 | 215 | 0.0 | 0.0 | 0.00 | 0.01 | 0.00 | 86 | 1017.6 |
| 20260905125258 | 47 | 215 | 0.0 | 0.0 | 0.00 | 0.01 | 0.00 | 85 | 1017.6 |
| 20260905123754 | 47 | 216 | 0.0 | 0.0 | 0.00 | 0.01 | 0.00 | 85 | 1017.5 |
| 20260905122253 | 48 | 216 | 0.0 | 0.0 | 0.00 | 0.01 | 0.00 | 85 | 1017.5 |
| 20260905120753 | 48 | 216 | 0.0 | 0.0 | 0.00 | 0.01 | 0.00 | 85 | 1017.5 |
| 20260905115254 | 48 | 216 | 0.0 | 0.0 | 0.00 | 0.01 | 0.00 | 84 | 1017.3 |
| 20260905113754 | 49 | 216 | 0.0 | 0.0 | 0.00 | 0.01 | 0.00 | 84 | 1017.5 |
| 20260905112253 | 49 | 216 | 0.0 | 0.0 | 0.00 | 0.01 | 0.00 | 84 | 1017.5 |
| 20260905110753 | 49 | 216 | 0.0 | 0.0 | 0.00 | 0.01 | 0.00 | 84 | 1017.5 |
| 20260905105253 | 49 | 215 | 0.0 | 0.0 | 0.00 | 0.01 | 0.00 | 84 | 1017.3 |
| 20260905103753 | 50 | 215 | 0.0 | 0.0 | 0.00 | 0.01 | 0.00 | 84 | 1017.3 |
| 20260905102252 | 49 | 216 | 0.0 | 0.0 | 0.00 | 0.01 | 0.00 | 84 | 1017.5 |
| 20260905100754 | 50 | 215 | 0.0 | 0.0 | 0.00 | 0.01 | 0.00 | 83 | 1017.3 |
| 20260905095251 | 50 | 215 | 0.0 | 0.0 | 0.00 | 0.01 | 0.00 | 83 | 1017.3 |
| 20260905093749 | 50 | 216 | 0.0 | 0.0 | 0.00 | 0.01 | 0.00 | 83 | 1017.2 |
| 20260905092940 | 50 | 215 | 0.0 | 0.0 | 0.00 | 0.01 | 0.00 | 83 | 1017.1 |
| 20260905090747 | 49 | 216 | 0.0 | 0.0 | 0.00 | 0.01 | 0.00 | 83 | 1017.1 |
| 20260905085247 | 50 | 216 | 0.0 | 0.0 | 0.00 | 0.01 | 0.00 | 82 | 1017.1 |
| 20260905084446 | 50 | 215 | 0.0 | 1.0 | 0.00 | 0.01 | 0.00 | 82 | 1017.1 |
| 20260905082245 | 50 | 217 | 0.0 | 0.0 | 0.00 | 0.01 | 0.00 | 81 | 1017.1 |
| 20260905080742 | 51 | 217 | 0.0 | 0.0 | 0.00 | 0.01 | 0.00 | 81 | 1017.1 |
| 20260905075240 | 51 | 217 | 0.0 | 1.0 | 0.00 | 0.01 | 0.00 | 80 | 1017.0 |
| 20260905073738 | 51 | 217 | 0.0 | 0.0 | 0.00 | 0.01 | 0.00 | 79 | 1016.9 |
| 20260905072237 | 51 | 217 | 0.0 | 0.0 | 0.00 | 0.01 | 0.00 | 79 | 1017.0 |
| 20260905070738 | 52 | 217 | 0.0 | 0.0 | 0.00 | 0.01 | 0.00 | 79 | 1016.9 |
| 20260905065235 | 52 | 217 | 0.0 | 1.0 | 0.00 | 0.01 | 0.01 | 78 | 1016.9 |
| 20260905063736 | 53 | 218 | 0.0 | 1.0 | 0.00 | 0.01 | 0.01 | 77 | 1016.5 |
| 20260905062234 | 53 | 222 | 0.0 | 1.0 | 0.00 | 0.01 | 0.01 | 76 | 1016.5 |
| 20260905060731 | 54 | 223 | 0.0 | 0.0 | 0.00 | 0.01 | 0.01 | 75 | 1016.7 |
| 20260905055229 | 54 | 223 | 0.0 | 0.0 | 0.00 | 0.01 | 0.01 | 74 | 1016.7 |
| 20260905053727 | 55 | 223 | 0.0 | 0.0 | 0.00 | 0.01 | 0.01 | 73 | 1016.6 |
| 20260905052223 | 56 | 223 | 0.0 | 0.0 | 0.00 | 0.01 | 0.01 | 71 | 1016.4 |
| 20260905050724 | 57 | 223 | 0.0 | 0.0 | 0.00 | 0.01 | 0.01 | 69 | 1016.4 |
| 20260905045224 | 58 | 223 | 0.0 | 0.0 | 0.00 | 0.01 | 0.01 | 65 | 1016.3 |
| 20260905045122 | 59 | 223 | 0.0 | 0.0 | 0.00 | 0.01 | 0.01 | 63 | 1016.2 |
| 20260905042223 | 60 | 223 | 0.0 | 0.0 | 0.00 | 0.01 | 0.01 | 60 | 1016.1 |
| 20260905040723 | 61 | 224 | 0.0 | 2.0 | 0.00 | 0.01 | 0.01 | 58 | 1016.1 |
| 20260905035224 | 61 | 207 | 0.0 | 0.0 | 0.00 | 0.01 | 0.01 | 58 | 1015.9 |
| 20260905033723 | 61 | 206 | 0.0 | 2.0 | 0.00 | 0.01 | 0.01 | 57 | 1015.7 |
| 20260905032223 | 62 | 264 | 0.0 | 0.0 | 0.00 | 0.01 | 0.01 | 55 | 1015.5 |
| 20260905031417 | 62 | 265 | 0.0 | 1.0 | 0.00 | 0.01 | 0.01 | 54 | 1015.5 |
| 20260905025218 | 62 | 289 | 0.0 | 1.0 | 0.00 | 0.01 | 0.01 | 54 | 1015.5 |
| 20260905023715 | 63 | 303 | 0.0 | 2.0 | 0.00 | 0.01 | 0.01 | 53 | 1015.4 |
| 20260905022215 | 63 | 291 | 0.0 | 5.0 | 0.00 | 0.01 | 0.01 | 53 | 1015.3 |
| 20260905020714 | 63 | 308 | 0.0 | 6.0 | 0.00 | 0.01 | 0.01 | 52 | 1015.2 |
| 20260905015213 | 64 | 330 | 0.0 | 6.0 | 0.00 | 0.01 | 0.01 | 51 | 1015.1 |
| 20260905013712 | 64 | 258 | 0.0 | 6.0 | 0.00 | 0.01 | 0.01 | 51 | 1015.0 |
| 20260905012918 | 64 | 322 | 1.0 | 8.0 | 0.00 | 0.01 | 0.01 | 50 | 1014.8 |
| 20260905010713 | 65 | 284 | 0.0 | 4.0 | 0.00 | 0.01 | 0.01 | 47 | 1014.8 |
| 20260905005212 | 65 | 260 | 1.0 | 9.0 | 0.00 | 0.01 | 0.01 | 46 | 1014.7 |
| 20260905003713 | 65 | 295 | 1.0 | 9.0 | 0.00 | 0.01 | 0.01 | 46 | 1014.5 |
| 20260905002213 | 66 | 290 | 1.0 | 10.0 | 0.00 | 0.01 | 0.01 | 45 | 1014.4 |
| 20260905000712 | 67 | 294 | 1.0 | 4.0 | 0.00 | 0.01 | 0.01 | 46 | 1014.4 |
| 20260904235213 | 66 | 235 | 1.0 | 8.0 | 0.00 | 0.01 | 0.01 | 46 | 1014.4 |
| 20260904233711 | 66 | 251 | 2.0 | 14.0 | 0.00 | 0.01 | 0.01 | 46 | 1014.3 |
| 20260904232210 | 65 | 268 | 1.0 | 12.0 | 0.00 | 0.01 | 0.01 | 49 | 1014.4 |
| 20260904230710 | 64 | 272 | 1.0 | 11.0 | 0.00 | 0.01 | 0.01 | 50 | 1014.3 |
| 20260904225211 | 64 | 287 | 2.0 | 14.0 | 0.00 | 0.01 | 0.01 | 51 | 1014.3 |
| 20260904223710 | 65 | 287 | 2.0 | 12.0 | 0.00 | 0.01 | 0.01 | 47 | 1014.1 |
| 20260904222211 | 65 | 262 | 3.0 | 13.0 | 0.00 | 0.01 | 0.01 | 46 | 1014.0 |
| 20260904220710 | 66 | 338 | 2.0 | 11.0 | 0.00 | 0.01 | 0.01 | 45 | 1013.8 |
| 20260904215211 | 65 | 247 | 1.0 | 13.0 | 0.00 | 0.01 | 0.01 | 48 | 1013.9 |
| 20260904214404 | 65 | 280 | 0.0 | 5.0 | 0.00 | 0.02 | 0.01 | 49 | 1013.9 |
| 20260904212905 | 65 | 268 | 0.0 | 7.0 | 0.00 | 0.02 | 0.01 | 49 | 1013.9 |
| 20260904210710 | 65 | 249 | 1.0 | 9.0 | 0.00 | 0.02 | 0.01 | 46 | 1013.8 |
| 20260904205204 | 64 | 350 | 0.0 | 2.0 | 0.00 | 0.02 | 0.01 | 49 | 1013.8 |
| 20260904203705 | 64 | 297 | 1.0 | 6.0 | 0.00 | 0.02 | 0.01 | 48 | 1013.8 |
| 20260904202204 | 63 | 280 | 1.0 | 10.0 | 0.00 | 0.02 | 0.01 | 49 | 1013.8 |
| 20260904200704 | 64 | 243 | 1.0 | 12.0 | 0.00 | 0.02 | 0.01 | 47 | 1013.9 |
| 20260904195205 | 65 | 218 | 0.0 | 5.0 | 0.00 | 0.02 | 0.01 | 45 | 1013.9 |
| 20260904193701 | 65 | 219 | 1.0 | 4.0 | 0.00 | 0.02 | 0.01 | 45 | 1013.9 |
| 20260904192201 | 65 | 206 | 1.0 | 10.0 | 0.00 | 0.02 | 0.01 | 46 | 1014.0 |
| 20260904190700 | 64 | 194 | 0.0 | 4.0 | 0.00 | 0.02 | 0.01 | 49 | 1014.0 |
| 20260904185200 | 63 | 211 | 1.0 | 4.0 | 0.00 | 0.02 | 0.01 | 51 | 1014.0 |
| 20260904183700 | 62 | 150 | 0.0 | 1.0 | 0.00 | 0.02 | 0.01 | 59 | 1014.1 |
| 20260904182200 | 60 | 82 | 0.0 | 0.0 | 0.00 | 0.02 | 0.01 | 62 | 1014.1 |
| 20260904180700 | 59 | 181 | 0.0 | 0.0 | 0.00 | 0.02 | 0.01 | 64 | 1014.2 |
| 20260904175158 | 59 | 236 | 0.0 | 1.0 | 0.00 | 0.02 | 0.01 | 64 | 1014.2 |
| 20260904173658 | 59 | 23 | 0.0 | 0.0 | 0.00 | 0.02 | 0.01 | 67 | 1014.1 |
| 20260904172908 | 58 | 106 | 0.0 | 0.0 | 0.00 | 0.02 | 0.01 | 66 | 1014.1 |
| 20260904170658 | 57 | 107 | 0.0 | 0.0 | 0.00 | 0.02 | 0.01 | 70 | 1014.0 |
| 20260904165843 | 56 | 74 | 0.0 | 2.0 | 0.01 | 0.02 | 0.01 | 72 | 1013.8 |
| 20260904163654 | 55 | 131 | 0.0 | 2.0 | 0.01 | 0.02 | 0.01 | 79 | 1013.8 |